Preview of NWS' New Version of Forecast
This preview is not operational and should not be used for support decisions.
Latest weather observations around

Santa Ana, John Wayne Airport-Orange County Airport (KSNA)

Using English Units (Switch to International System of Units)
Date/ Time (PST) Wind (mph) Vis. (mi) Weather Sky Cond. Temp (°F) Rel. Humidity Wind Chill (°F) Heat Index (°F) Pressure Precip. (in)
Air Dwpt 6 hour Altimeter (inHg) Sea level (inHg) 1 hr 3 hr 6 hr
Max Min
Feb 25 16:53 WSW 7 10 Clear CLR 65        %     30.11 30.1      
Feb 25 15:53 SW 10 10 Clear CLR 66        %     30.11 30.1      
Feb 25 14:53 SW 9 10 Clear CLR 68        %     30.11 30.11      
Feb 25 13:53 WSW 8 10 Clear CLR 67        %     30.14 30.13      
Feb 25 12:53 6 10 Clear CLR 65 35     33%     30.16 30.16      
Feb 25 11:53 SW 7 10 Clear CLR 65 36     34%     30.19 30.19      
Feb 25 10:53 WSW 5 10 Clear CLR 62 31     31%     30.21 30.21      
Feb 25 09:53 WNW 3 10 Clear CLR 58 35     42%     30.22 30.22      
Feb 25 08:53 Calm 10 Clear CLR 55 34     45%     30.23 30.22      
Feb 25 07:53 Calm 10 Clear CLR 50 31     48%     30.22 30.22      
Feb 25 06:53 Calm 10 Clear CLR 45 31     58%     30.2 30.2      
Feb 25 05:53 NNE 3 10 Clear CLR 45 31     58% 44   30.19 30.19      
Feb 25 04:53 NNE 5 10 Clear CLR 44 32     62% 41   30.18 30.18      
Feb 25 03:53 NNE 6 10 Clear CLR 46 33     60% 43   30.17 30.16      
Feb 25 02:53 E 5 10 Clear CLR 48 34     58% 46   30.17 30.17      
Feb 25 01:53 E 7 10 Clear CLR 48 33     56% 45   30.18 30.18      
Feb 25 00:53 Calm 10 Clear CLR 47 34     60%     30.19 30.18      
Feb 24 23:53 3 10 Clear CLR 49 35     59% 48   30.19 30.19      
Feb 24 22:53 Calm 10 Clear CLR 49 36     61%     30.18 30.18      
Feb 24 21:53 SE 3 10 Clear CLR 50 36     58% 49   30.2 30.2      
Feb 24 20:53 Calm 10 Clear CLR 53 37     54%     30.21 30.21      
Feb 24 19:53 3 10 Clear CLR 54 37     53%     30.22 30.22      
Feb 24 18:53 Calm 10 Clear CLR 55 34     45%     30.21 30.21      
Feb 24 17:53 WSW 6 10 Mostly Clear FEW250 56 31     38%     30.21 30.21      
Feb 24 16:53 SW 9 10 Mostly Clear FEW250 58 33     39%     30.21 30.21      
Feb 24 15:53 WSW 9 10 Mostly Clear FEW250 59 31     34%     30.22 30.22      
Feb 24 14:53 WSW 7 10 Clear CLR 60 29     31%     30.23 30.22      
Feb 24 13:53 WSW 9 10 Mostly Clear FEW250 60 26     27%     30.24 30.24      
Feb 24 12:53 WSW 8 10 Clear CLR 61 22     22%     30.26 30.26      
Feb 24 11:53 WSW 6 10 Clear CLR 60 19     20%     30.29 30.29      
Feb 24 10:53 6 10 Clear CLR 60        %     30.33 30.33      
Feb 24 09:53 Calm 10 Clear CLR 56 17     21%     30.34 30.34      
Feb 24 08:53 Calm 10 Clear CLR 53 26     35%     30.35 30.35      
Feb 24 07:53 N 3 10 Clear CLR 47 27     46% 46   30.35 30.34      
Feb 24 06:53 Calm 10 Clear CLR 41 28     60%     30.33 30.33      
Feb 24 05:53 NNE 3 10 Clear CLR 40 28     62% 38   30.32 30.32      
Feb 24 04:53 Calm 10 Clear CLR 41 28     60%     30.31 30.31      
Feb 24 03:53 Calm 10 Clear CLR 42 29     59%     30.3 30.3      
Feb 24 02:53 Calm 10 Clear CLR 43 29     57%     30.3 30.3      
Feb 24 01:53 Calm 10 Clear CLR 44 26     49%     30.3 30.29      
Feb 24 00:53 SW 3 10 Clear CLR 45 26     47% 44   30.3 30.29      
Feb 23 23:53 Calm 10 Clear CLR 46 26     45%     30.29 30.28      
Feb 23 22:53 E 5 10 Clear CLR 47 24     40% 45   30.27 30.27      
Feb 23 21:53 Calm 10 Clear CLR 50 24     36%     30.26 30.26      
Feb 23 20:53 S 6 10 Clear CLR 49 22     34% 46   30.24 30.24      
Feb 23 19:53 Calm 10 Clear CLR 54 17     23%     30.23 30.23      
Feb 23 18:53 SSW 10 10 Clear CLR 53 20     27%     30.2 30.2      
Feb 23 17:53 5 10 Clear CLR 56        %     30.18 30.18      
Feb 23 16:53 W 10 10 Mostly Clear FEW060 57 30     36%     30.16 30.16      
Feb 23 15:53 W 14 10 Mostly Clear FEW060 57 27     31%     30.16 30.16      
Feb 23 14:53 W 10 10 Mostly Clear FEW060 58 29     33%     30.15 30.15      
Feb 23 13:53 W 14 10 Mostly Clear FEW030 FEW055 58 27     30%     30.16 30.15      
Feb 23 12:53 WSW 13 10 Mostly Clear FEW032 FEW050 57 28     33%     30.17 30.17      
Feb 23 11:53 WNW 8 10 Mostly Clear FEW050 58 17     20%     30.19 30.19      
Feb 23 10:53 WNW 16 10 Mostly Clear FEW050 56        %     30.21 30.2      
Feb 23 09:53 NW 8 10 Mostly Clear FEW048 54        %     30.22 30.22      
Feb 23 08:53 NW 13 10 Mostly Clear FEW042 FEW048 52 21     29%     30.22 30.21      
Feb 23 07:53 WNW 8 10 Mostly Clear FEW042 FEW046 50 28     42% 47   30.2 30.19      
Feb 23 06:53 5 10 Mostly Clear FEW045 49 33     54% 47   30.18 30.18      
Feb 23 05:53 W 6 10 Mostly Clear FEW026 FEW047 51 33     50%     30.17 30.16      
Feb 23 04:53 WNW 5 10 Clear CLR 51 37     59%     30.17 30.16      
Feb 23 03:53 Calm 10 Partly Cloudy SCT035 51 39     63%     30.16 30.16      
Feb 23 02:53 7 10 Clear CLR 51 39     63%     30.17 30.16      
Feb 23 01:53 W 6 10 Clear CLR 52 40     63%     30.17 30.16      
Feb 23 00:53 WSW 6 10 Clear CLR 53 41     63%     30.17 30.17      
Feb 22 23:53 S 7 10 Partly Cloudy SCT034 53 41     63%     30.18 30.18      
Feb 22 22:53 WSW 5 10 Partly Cloudy SCT042 53 41     63%     30.2 30.19      
Feb 22 21:53 SW 9 10 Mostly Cloudy SCT031 BKN050 54 43     66%     30.19 30.19      
Feb 22 20:53 WSW 8 10 Mostly Cloudy BKN037 BKN050 55 42     62%     30.19 30.19      
Feb 22 19:53 SW 5 10 Mostly Cloudy FEW032 BKN055 55 42     62%     30.18 30.18      
Feb 22 18:53 WSW 3 10 Mostly Clear FEW032 55 42     62%     30.18 30.18      
Feb 22 17:53 WSW 6 10 Mostly Clear FEW032 56 42     60%     30.17 30.17      
Jun 11 23:53 W 7 10 Cloudy OVC037 63 53     70%     29.99 29.98      
Jun 11 19:53 S 8 10 Partly Cloudy FEW023 SCT028 SCT035 64 54     70%     29.93 29.93      
Jun 11 14:53 SSW 18 10 Partly Cloudy FEW033 SCT038 71 53     53%   70 29.92 29.91      
Jun 11 12:53 SSE 10 10 Mostly Cloudy SCT028 BKN036 69 53     57%     29.92 29.92      
Jun 11 07:53 ESE 8 10 Cloudy BKN022 BKN030 OVC035 62 56     80%     29.89 29.89      
Jun 08 14:53 W 9 9 Mostly Clear FEW027 FEW250 72 58     61%   72 29.98 29.97      
Jun 07 22:53 3 7 Cloudy FEW013 OVC015 63 57     81%     29.98 29.98      
Jun 07 19:53 SSW 9 8 Cloudy SCT013 OVC016 63 57     81%     29.96 29.96      
Jun 07 08:59 SW 5 4 Fog/Mist SCT007 BKN010 OVC014 62 60     93%     29.95        
Jun 06 12:53 SW 7 10 Cloudy OVC013 66 59     78%     29.95 29.95      
Jun 06 00:53 S 5 10 Cloudy OVC012 63 58     84%     29.9 29.89